• In Belarus
  • List of Countries
  • For 7 days
  • Water Temperature
  • Satellite Maps
  • Weather Map
  • Weather Widgets
  • user-avatar
    Login

    Hourly Weather Sydney

    Today, 13 December, Wednesday

    Time Temperature Precipitation Wind Pressure Humidity
    00:00 +20°C° 0 mm 3 mps 760 mmHg 88%
    01:00 +20°C° 0 mm 2 mps 760 mmHg 89%
    02:00 +20°C° 0 mm 2 mps 760 mmHg 91%
    03:00 +19°C° 0 mm 2 mps 760 mmHg 92%
    04:00 +19°C° 0 mm 2 mps 759 mmHg 94%
    05:00 +21°C° 0 mm 2 mps 759 mmHg 85%
    06:00 +24°C° 0 mm 2 mps 760 mmHg 76%
    07:00 +26°C° 0 mm 2 mps 760 mmHg 67%
    08:00 +29°C° 0 mm 3 mps 760 mmHg 57%
    09:00 +33°C° 0 mm 3 mps 759 mmHg 46%
    10:00 +35°C° 0 mm 3 mps 759 mmHg 41%
    11:00 +36°C° 0 mm 4 mps 759 mmHg 36%
    12:00 +38°C° 0 mm 4 mps 758 mmHg 31%
    13:00 +40°C° 0 mm 5 mps 757 mmHg 27%
    14:00 +39°C° 0 mm 6 mps 757 mmHg 28%
    15:00 +38°C° 0 mm 7 mps 757 mmHg 30%
    16:00 +36°C° 0 mm 7 mps 756 mmHg 32%
    17:00 +34°C° 0 mm 7 mps 756 mmHg 37%
    18:00 +33°C° 0 mm 7 mps 756 mmHg 42%
    19:00 +30°C° 0 mm 7 mps 756 mmHg 48%
    20:00 +29°C° 0 mm 7 mps 756 mmHg 50%
    21:00 +28°C° 0 mm 7 mps 756 mmHg 53%
    22:00 +27°C° 0 mm 6 mps 757 mmHg 55%
    23:00 +26°C° 0 mm 6 mps 756 mmHg 58%

    Tomorrow, 14 December, Thursday

    Time Temperature Precipitation Wind Pressure Humidity
    00:00 +24°C° 0 mm 6 mps 756 mmHg 60%
    01:00 +25°C° 0 mm 5 mps 756 mmHg 63%
    02:00 +23°C° 0 mm 5 mps 756 mmHg 63%
    03:00 +23°C° 0 mm 5 mps 755 mmHg 64%
    04:00 +22°C° 0 mm 5 mps 755 mmHg 64%
    05:00 +25°C° 0 mm 5 mps 755 mmHg 56%
    06:00 +27°C° 0 mm 5 mps 755 mmHg 48%
    07:00 +30°C° 0 mm 5 mps 756 mmHg 41%
    08:00 +34°C° 0 mm 5 mps 756 mmHg 33%
    09:00 +39°C° 0 mm 5 mps 755 mmHg 25%
    10:00 +42°C° 0 mm 5 mps 755 mmHg 18%
    11:00 +43°C° 0 mm 5 mps 755 mmHg 16%
    12:00 +45°C° 0 mm 6 mps 754 mmHg 15%
    13:00 +46°C° 0 mm 6 mps 754 mmHg 14%
    14:00 +45°C° 0 mm 6 mps 753 mmHg 17%
    15:00 +42°C° 0 mm 6 mps 753 mmHg 20%
    16:00 +40°C° 0 mm 6 mps 753 mmHg 23%
    17:00 +38°C° 0 mm 6 mps 753 mmHg 26%
    18:00 +36°C° 0 mm 6 mps 753 mmHg 30%
    19:00 +34°C° 0 mm 6 mps 753 mmHg 33%
    20:00 +32°C° 0 mm 5 mps 754 mmHg 38%
    21:00 +30°C° 0 mm 4 mps 755 mmHg 43%
    22:00 +29°C° 0 mm 4 mps 756 mmHg 48%
    23:00 +27°C° 0 mm 5 mps 756 mmHg 55%

    Day after tomorrow, 15 December, Friday

    Time Temperature Precipitation Wind Pressure Humidity
    00:00 +26°C° 0 mm 6 mps 756 mmHg 63%
    01:00 +24°C° 0 mm 7 mps 756 mmHg 70%
    02:00 +23°C° 0 mm 7 mps 756 mmHg 74%
    03:00 +22°C° 0 mm 7 mps 757 mmHg 78%
    04:00 +21°C° 0 mm 6 mps 757 mmHg 82%
    05:00 +22°C° 0 mm 6 mps 758 mmHg 82%
    06:00 +22°C° 0 mm 5 mps 758 mmHg 81%
    07:00 +22°C° 0 mm 5 mps 759 mmHg 80%
    08:00 +23°C° 0 mm 5 mps 759 mmHg 74%
    09:00 +26°C° 0 mm 5 mps 759 mmHg 68%
    10:00 +27°C° 0 mm 4 mps 759 mmHg 62%
    11:00 +29°C° 0 mm 4 mps 758 mmHg 56%
    12:00 +32°C° 0 mm 4 mps 758 mmHg 49%
    13:00 +34°C° 0 mm 4 mps 758 mmHg 43%
    14:00 +30°C° 0.9 mm 4 mps 758 mmHg 54%
    15:00 +28°C° 0.9 mm 4 mps 758 mmHg 64%
    16:00 +26°C° 0.9 mm 4 mps 757 mmHg 75%
    17:00 +25°C° 1.3 mm 4 mps 758 mmHg 79%
    18:00 +23°C° 1.3 mm 4 mps 758 mmHg 84%
    19:00 +22°C° 1.3 mm 3 mps 758 mmHg 89%
    20:00 +22°C° 0.4 mm 3 mps 759 mmHg 90%
    21:00 +22°C° 0.4 mm 4 mps 759 mmHg 91%
    22:00 +22°C° 0.4 mm 4 mps 760 mmHg 93%
    23:00 +22°C° 0 mm 3 mps 759 mmHg 93%

    16 December, Saturday

    Time Temperature Precipitation Wind Pressure Humidity
    00:00 +21°C° 0 mm 3 mps 759 mmHg 93%
    01:00 +21°C° 0 mm 3 mps 758 mmHg 93%
    02:00 +21°C° 0 mm 3 mps 758 mmHg 92%
    03:00 +21°C° 0 mm 3 mps 758 mmHg 92%
    04:00 +21°C° 0 mm 2 mps 758 mmHg 91%
    05:00 +22°C° 0.1 mm 3 mps 758 mmHg 86%
    06:00 +24°C° 0.1 mm 3 mps 759 mmHg 80%
    07:00 +26°C° 0.1 mm 3 mps 759 mmHg 74%
    08:00 +30°C° 0 mm 3 mps 759 mmHg 59%
    09:00 +34°C° 0 mm 4 mps 759 mmHg 43%
    10:00 +38°C° 0 mm 4 mps 759 mmHg 28%
    11:00 +40°C° 0 mm 4 mps 759 mmHg 27%
    12:00 +40°C° 0 mm 5 mps 758 mmHg 27%
    13:00 +40°C° 0 mm 6 mps 758 mmHg 26%
    14:00 +36°C° 0.8 mm 5 mps 757 mmHg 38%
    15:00 +32°C° 0.8 mm 5 mps 757 mmHg 50%
    16:00 +28°C° 0.8 mm 4 mps 757 mmHg 63%
    17:00 +27°C° 0.3 mm 5 mps 757 mmHg 66%
    18:00 +27°C° 0.3 mm 5 mps 758 mmHg 69%
    19:00 +26°C° 0.3 mm 5 mps 758 mmHg 72%
    20:00 +26°C° 2 mm 5 mps 759 mmHg 78%
    21:00 +25°C° 2 mm 4 mps 759 mmHg 83%
    22:00 +25°C° 2 mm 4 mps 760 mmHg 88%
    23:00 +23°C° 1 mm 4 mps 760 mmHg 89%

    17 December, Sunday

    Time Temperature Precipitation Wind Pressure Humidity
    00:00 +23°C° 1 mm 4 mps 760 mmHg 90%
    01:00 +23°C° 1 mm 4 mps 760 mmHg 90%
    02:00 +22°C° 0.2 mm 3 mps 760 mmHg 92%
    03:00 +22°C° 0.2 mm 3 mps 760 mmHg 93%
    04:00 +23°C° 0.2 mm 2 mps 760 mmHg 95%
    05:00 +22°C° 0 mm 3 mps 760 mmHg 92%
    06:00 +24°C° 0 mm 3 mps 761 mmHg 90%
    07:00 +25°C° 0 mm 4 mps 761 mmHg 88%
    08:00 +25°C° 0 mm 3 mps 761 mmHg 83%
    09:00 +26°C° 0 mm 3 mps 761 mmHg 78%
    10:00 +27°C° 0 mm 3 mps 761 mmHg 73%
    11:00 +29°C° 0 mm 3 mps 760 mmHg 65%
    12:00 +33°C° 0 mm 3 mps 760 mmHg 57%
    13:00 +35°C° 0 mm 3 mps 759 mmHg 49%
    14:00 +34°C° 0.2 mm 3 mps 759 mmHg 53%
    15:00 +33°C° 0.2 mm 3 mps 759 mmHg 56%
    16:00 +31°C° 0.2 mm 3 mps 758 mmHg 59%
    17:00 +29°C° 0.5 mm 3 mps 759 mmHg 68%
    18:00 +27°C° 0.5 mm 3 mps 759 mmHg 76%
    19:00 +25°C° 0.5 mm 3 mps 759 mmHg 85%
    20:00 +25°C° 0.3 mm 2 mps 760 mmHg 87%
    21:00 +24°C° 0.3 mm 2 mps 760 mmHg 90%
    22:00 +24°C° 0.3 mm 2 mps 761 mmHg 92%
    23:00 +23°C° 0.2 mm 2 mps 760 mmHg 93%

    18 December, Monday

    Time Temperature Precipitation Wind Pressure Humidity
    00:00 +23°C° 0.2 mm 2 mps 760 mmHg 94%
    01:00 +23°C° 0.2 mm 1 mps 759 mmHg 95%
    02:00 +23°C° 0.1 mm 1 mps 759 mmHg 95%
    03:00 +23°C° 0.1 mm 1 mps 759 mmHg 96%
    04:00 +22°C° 0.1 mm 1 mps 759 mmHg 97%
    05:00 +23°C° 0 mm 1 mps 759 mmHg 92%
    06:00 +25°C° 0 mm 1 mps 759 mmHg 88%
    07:00 +26°C° 0 mm 1 mps 759 mmHg 84%
    08:00 +29°C° 0 mm 1 mps 759 mmHg 72%
    09:00 +31°C° 0 mm 2 mps 759 mmHg 60%
    10:00 +35°C° 0 mm 2 mps 758 mmHg 48%
    11:00 +37°C° 0 mm 3 mps 758 mmHg 43%
    12:00 +40°C° 0 mm 4 mps 757 mmHg 38%
    13:00 +42°C° 0 mm 4 mps 756 mmHg 33%
    14:00 +40°C° 0.3 mm 5 mps 756 mmHg 38%
    15:00 +37°C° 0.3 mm 5 mps 756 mmHg 44%
    16:00 +35°C° 0.3 mm 6 mps 755 mmHg 49%
    17:00 +34°C° 0.2 mm 6 mps 756 mmHg 54%
    18:00 +32°C° 0.2 mm 6 mps 756 mmHg 59%
    19:00 +30°C° 0.2 mm 7 mps 756 mmHg 64%
    20:00 +29°C° 0 mm 6 mps 756 mmHg 65%
    21:00 +28°C° 0 mm 5 mps 757 mmHg 65%
    22:00 +28°C° 0 mm 4 mps 757 mmHg 66%
    23:00 +28°C° 0 mm 4 mps 756 mmHg 66%
    Show more